Joplin, MO

8:55 AM CDT on October 17, 2019 (GMT -0500)
Joplin Regional

Weather History for KJLN - August, 2019

Change the Weather History Date:

Thursday, August 1, 2019

  Actual Average Record
Temperature  
Mean Temperature 76 °F 81 °F  
Max Temperature 82 °F 92 °F 108 °F (2011)
Min Temperature 70 °F 70 °F 57 °F (1992)
Degree Days  
Heating Degree Days 0 0  
Month to date heating degree days 0 0  
Since 1 June heating degree days 1 5  
Since 1 July heating degree days 0 0  
Cooling Degree Days 11 16  
Month to date cooling degree days 11 16  
Year to date cooling degree days 862 987  
Since 1 June cooling degree days 709 807  
Growing Degree Days 26 (Base 50)    
Moisture  
Dew Point 71 °F    
Average Humidity 85    
Maximum Humidity 100    
Minimum Humidity 69    
Precipitation  
Precipitation 0.64 in 0.09 in 1.21 in (1954)
Month to date precipitation 0.64 0.09  
Year to date precipitation 43.55 27.71  
Sea Level Pressure  
Sea Level Pressure 30.08 in    
Wind  
Wind Speed 4 mph (ESE)    
Max Wind Speed 14 mph    
Max Gust Speed 18 mph    
Visibility 8 miles    
Events Rain , Thunderstorm    
T = Trace of Precipitation, MM = Missing Value Source: NWS Daily Summary

Daily Weather History Graph

Daily Weather History Graph

Search for Another Location

Airport or City:

Astronomy

Aug. 01, 2019 Rise Set
Actual Time 6:22 AM CDT 8:25 PM CDT
Civil Twilight 5:53 AM CDT 8:54 PM CDT
Nautical Twilight 5:18 AM CDT 9:29 PM CDT
Astronomical Twilight 4:40 AM CDT 10:06 PM CDT
Moon 6:48 AM CDT (8/1) 9:13 PM CDT (8/1)
Length of Visible Light 15h 00m
Length of Day
14h 02m
New Moon, 1% of the Moon is Illuminated
Aug 1
New Moon
Aug 7
First Quarter
Aug 15
Full
Aug 23
Last Quarter
Aug 30
New

Hourly Weather History & Observations

Time (CDT) Temp. Heat Index Dew Point Humidity Pressure Visibility Wind Dir Wind Speed Gust Speed Precip Events Conditions
12:53 AM 75.0 °F - 71.1 °F 87% 30.06 in 10.0 mi ENE 3.5 mph - 0.01 in Rain Light Rain
1:16 AM 73.9 °F - 72.0 °F 93% 30.09 in 9.0 mi South 4.6 mph - 0.01 in Rain , Thunderstorm Light Thunderstorms and Rain
1:53 AM 73.9 °F - 72.0 °F 93% 30.04 in 8.0 mi Calm Calm - 0.04 in Rain , Thunderstorm Light Rain
2:10 AM 75.9 °F - 71.1 °F 85% 30.05 in 8.0 mi South 12.7 mph - 0.02 in Rain Light Rain
2:53 AM 75.0 °F - 72.0 °F 90% 30.02 in 10.0 mi SW 10.4 mph - 0.05 in Rain , Thunderstorm Light Rain
3:12 AM 73.9 °F - 72.0 °F 93% 30.08 in 7.0 mi WNW 12.7 mph - 0.02 in Rain , Thunderstorm Light Thunderstorms and Rain
3:53 AM 73.0 °F - 72.0 °F 96% 30.06 in 7.0 mi Calm Calm - 0.07 in Rain , Thunderstorm Light Thunderstorms and Rain
4:04 AM 73.0 °F - 72.0 °F 96% 30.09 in 4.0 mi Calm Calm - 0.03 in Rain , Thunderstorm Rain
4:11 AM 73.0 °F - 71.1 °F 93% 30.10 in 4.0 mi East 4.6 mph - 0.05 in Rain Rain
4:53 AM 72.0 °F - 71.1 °F 97% 30.09 in 5.0 mi ENE 4.6 mph - 0.13 in Rain Rain
5:14 AM 72.0 °F - 72.0 °F 100% 30.12 in 6.0 mi Calm Calm - 0.02 in Rain , Thunderstorm Light Thunderstorms and Rain
5:29 AM 72.0 °F - 71.1 °F 97% 30.13 in 4.0 mi Calm Calm - 0.05 in Rain Rain
5:53 AM 71.1 °F - 71.1 °F 100% 30.10 in 4.0 mi Calm Calm - 0.11 in Rain Light Rain
6:10 AM 71.1 °F - 71.1 °F 100% 30.14 in 4.0 mi NW 8.1 mph - 0.03 in Rain , Thunderstorm Light Thunderstorms and Rain
6:53 AM 70.0 °F - 70.0 °F 100% 30.10 in 5.0 mi Variable 3.5 mph - 0.08 in Rain , Thunderstorm Light Thunderstorms and Rain
7:47 AM 69.8 °F - 69.8 °F 100% 30.12 in 5.0 mi WNW 8.1 mph - 0.09 in Rain Light Rain
7:53 AM 70.0 °F - 69.1 °F 97% 30.09 in 6.0 mi West 8.1 mph - 0.09 in Rain Light Rain
8:53 AM 70.0 °F - 70.0 °F 100% 30.10 in 7.0 mi WNW 6.9 mph - 0.02 in Rain Light Rain
9:53 AM 71.1 °F - 70.0 °F 96% 30.11 in 10.0 mi NNW 5.8 mph - 0.01 in   Partly Cloudy
10:53 AM 71.1 °F - 70.0 °F 96% 30.14 in 9.0 mi East 9.2 mph - 0.01 in Rain Light Rain
11:53 AM 71.1 °F - 69.1 °F 93% 30.13 in 10.0 mi SE 6.9 mph - 0.03 in Rain Light Rain
12:53 PM 73.0 °F - 69.1 °F 87% 30.13 in 10.0 mi SSE 4.6 mph - 0.00 in   Scattered Clouds
1:53 PM 73.9 °F - 70.0 °F 87% 30.10 in 10.0 mi ESE 5.8 mph - N/A   Scattered Clouds
2:53 PM 75.0 °F - 71.1 °F 87% 30.08 in 10.0 mi East 8.1 mph - 0.00 in   Partly Cloudy
3:53 PM 78.1 °F - 70.0 °F 76% 30.06 in 10.0 mi ESE 5.8 mph - N/A   Partly Cloudy
4:53 PM 79.0 °F - 69.1 °F 72% 30.05 in 10.0 mi ESE 5.8 mph - N/A   Clear
5:53 PM 81.0 °F 84.4 °F 70.0 °F 69% 30.04 in 10.0 mi ESE 5.8 mph - N/A   Clear
6:53 PM 82.0 °F 86.3 °F 71.1 °F 69% 30.04 in 10.0 mi Calm Calm - N/A   Clear
7:53 PM 78.1 °F - 72.0 °F 81% 30.05 in 10.0 mi Calm Calm - N/A   Clear
8:53 PM 75.9 °F - 70.0 °F 82% 30.05 in 10.0 mi ENE 4.6 mph - N/A   Partly Cloudy
9:53 PM 75.0 °F - 70.0 °F 84% 30.05 in 10.0 mi East 4.6 mph - N/A   Partly Cloudy
10:53 PM 73.0 °F - 70.0 °F 90% 30.06 in 10.0 mi East 3.5 mph - N/A   Clear
11:53 PM 73.9 °F - 69.1 °F 85% 30.06 in 10.0 mi ESE 4.6 mph - N/A   Clear